FIA439 LEPA-LEIB

Flight info

Callsign FIA439
Flight time 0h 16m
Altitude 170
Route NELU3A NELUX NELU1N
Aircraft A320/M-V/N

Departure

Time 2026-05-04 18:30
Airport Palma de Mallorca Airport (LEPA)

Arrival

Time 2026-05-04 18:47
Airport Ibiza Airport (LEIB)
Time Latitude Longitude Altitude Speed Heading
2026-05-04 18:08 39.55082 2.72833 38 ft 0 kts 181°
2026-05-04 18:16 39.55083 2.72833 38 ft 0 kts 181°
2026-05-04 18:19 39.55090 2.72833 38 ft 2 kts 181°
2026-05-04 18:19 39.55107 2.72834 36 ft 2 kts 181°
2026-05-04 18:20 39.55124 2.72834 35 ft 2 kts 146°
2026-05-04 18:20 39.55135 2.72819 38 ft 2 kts 111°
2026-05-04 18:20 39.55139 2.72798 38 ft 1 kts 63°
2026-05-04 18:20 39.55138 2.72798 38 ft 0 kts 62°
2026-05-04 18:22 39.55139 2.72799 38 ft 0 kts 62°
2026-05-04 18:22 39.55140 2.72803 34 ft 0 kts 62°
2026-05-04 18:22 39.55141 2.72804 34 ft 0 kts 62°
2026-05-04 18:22 39.55142 2.72806 35 ft 1 kts 62°
2026-05-04 18:23 39.55146 2.72818 37 ft 2 kts 62°
2026-05-04 18:23 39.55148 2.72822 37 ft 0 kts 62°
2026-05-04 18:23 39.55149 2.72823 38 ft 1 kts 62°
2026-05-04 18:24 39.55152 2.72831 38 ft 1 kts 59°
2026-05-04 18:24 39.55155 2.72838 38 ft 3 kts 58°
2026-05-04 18:24 39.55182 2.72894 38 ft 11 kts 58°
2026-05-04 18:24 39.55230 2.72998 38 ft 13 kts 59°
2026-05-04 18:25 39.55295 2.73130 37 ft 21 kts 57°
2026-05-04 18:25 39.55375 2.73300 38 ft 20 kts 59°
2026-05-04 18:25 39.55436 2.73430 37 ft 18 kts 58°
2026-05-04 18:25 39.55493 2.73553 38 ft 11 kts 58°
2026-05-04 18:26 39.55574 2.73536 38 ft 15 kts 329°
2026-05-04 18:26 39.55590 2.73524 38 ft 4 kts 329°
2026-05-04 18:26 39.55641 2.73508 37 ft 11 kts
2026-05-04 18:26 39.55706 2.73610 38 ft 19 kts 58°
2026-05-04 18:27 39.55771 2.73746 37 ft 14 kts 58°
2026-05-04 18:27 39.55837 2.73887 38 ft 22 kts 58°
2026-05-04 18:27 39.55922 2.74067 38 ft 18 kts 58°
2026-05-04 18:27 39.55999 2.74229 38 ft 25 kts 59°
2026-05-04 18:28 39.56057 2.74355 37 ft 9 kts 58°
2026-05-04 18:28 39.56109 2.74441 38 ft 13 kts 34°
2026-05-04 18:28 39.56139 2.74453 38 ft 0 kts
2026-05-04 18:28 39.56152 2.74452 38 ft 6 kts 354°
2026-05-04 18:29 39.56212 2.74413 37 ft 13 kts 328°
2026-05-04 18:29 39.56250 2.74325 38 ft 10 kts 263°
2026-05-04 18:29 39.56204 2.74216 38 ft 19 kts 238°
2026-05-04 18:29 39.56008 2.73809 37 ft 88 kts 239°
2026-05-04 18:30 39.55013 2.71698 301 ft 165 kts 238°
2026-05-04 18:30 39.54410 2.70412 927 ft 172 kts 240°
2026-05-04 18:30 39.53779 2.69059 1485 ft 184 kts 237°
2026-05-04 18:31 39.53062 2.67635 2098 ft 190 kts 235°
2026-05-04 18:31 39.52321 2.66206 2759 ft 194 kts 236°
2026-05-04 18:31 39.51552 2.64732 3423 ft 206 kts 236°
2026-05-04 18:31 39.50691 2.63110 3848 ft 230 kts 236°
2026-05-04 18:32 39.49751 2.61353 4521 ft 243 kts 236°
2026-05-04 18:32 39.48774 2.59534 5319 ft 249 kts 236°
2026-05-04 18:32 39.47779 2.57685 6230 ft 252 kts 236°
2026-05-04 18:32 39.46774 2.55811 7089 ft 255 kts 236°
2026-05-04 18:33 39.45760 2.53918 7974 ft 257 kts 236°
2026-05-04 18:33 39.44739 2.52011 8876 ft 259 kts 236°
2026-05-04 18:33 39.43706 2.50091 9772 ft 261 kts 235°
2026-05-04 18:33 39.42648 2.48127 10319 ft 276 kts 236°
2026-05-04 18:34 39.41506 2.46006 10582 ft 299 kts 236°
2026-05-04 18:34 39.40299 2.43758 11143 ft 308 kts 236°
2026-05-04 18:34 39.39069 2.41466 11877 ft 312 kts 236°
2026-05-04 18:34 39.37824 2.39149 12650 ft 315 kts 236°
2026-05-04 18:35 39.36566 2.36815 13406 ft 318 kts 236°
2026-05-04 18:35 39.35296 2.34459 14106 ft 321 kts 236°
2026-05-04 18:35 39.34015 2.32085 14768 ft 324 kts 236°
2026-05-04 18:35 39.32739 2.29719 15412 ft 326 kts 236°
2026-05-04 18:36 39.31441 2.27312 16118 ft 328 kts 236°
2026-05-04 18:36 39.30133 2.24887 16728 ft 330 kts 236°
2026-05-04 18:36 39.28816 2.22453 16913 ft 330 kts 236°
2026-05-04 18:36 39.27502 2.20029 16924 ft 330 kts 236°
2026-05-04 18:37 39.26177 2.17584 16080 ft 338 kts 236°
2026-05-04 18:37 39.24812 2.15067 15257 ft 345 kts 236°
2026-05-04 18:37 39.23435 2.12532 14654 ft 345 kts 236°
2026-05-04 18:37 39.22061 2.10006 14108 ft 343 kts 236°
2026-05-04 18:38 39.20694 2.07499 13568 ft 341 kts 236°
2026-05-04 18:38 39.19335 2.05003 12983 ft 339 kts 236°
2026-05-04 18:38 39.17994 2.02542 12652 ft 330 kts 236°
2026-05-04 18:38 39.16707 2.00176 12522 ft 315 kts 236°
2026-05-04 18:39 39.15476 1.97913 12389 ft 302 kts 236°
2026-05-04 18:39 39.14293 1.95741 12262 ft 291 kts 236°
2026-05-04 18:39 39.13151 1.93647 12134 ft 280 kts 236°
2026-05-04 18:39 39.12045 1.91623 11912 ft 274 kts 236°
2026-05-04 18:40 39.10953 1.89625 11571 ft 272 kts 236°
2026-05-04 18:40 39.09866 1.87635 11094 ft 275 kts 236°
2026-05-04 18:40 39.08765 1.85619 10481 ft 283 kts 236°
2026-05-04 18:40 39.07619 1.83525 9849 ft 290 kts 236°
2026-05-04 18:41 39.06445 1.81385 9178 ft 296 kts 236°
2026-05-04 18:41 39.05245 1.79201 8514 ft 301 kts 236°
2026-05-04 18:41 39.04031 1.76989 7919 ft 304 kts 236°
2026-05-04 18:41 39.02830 1.74782 7516 ft 299 kts 238°
2026-05-04 18:42 39.01784 1.72498 7127 ft 294 kts 242°
2026-05-04 18:42 39.00811 1.70200 6729 ft 291 kts 243°
2026-05-04 18:42 38.99872 1.67909 6305 ft 288 kts 243°
2026-05-04 18:42 38.98954 1.65650 5948 ft 283 kts 243°
2026-05-04 18:43 38.98048 1.63433 5595 ft 277 kts 243°
2026-05-04 18:43 38.97155 1.61261 5241 ft 272 kts 243°
2026-05-04 18:43 38.96275 1.59135 4801 ft 264 kts 242°
2026-05-04 18:43 38.95435 1.57101 4335 ft 252 kts 242°
2026-05-04 18:44 38.94636 1.55153 3886 ft 241 kts 242°
2026-05-04 18:44 38.94125 1.53910 3566 ft 236 kts 242°
2026-05-04 18:44 38.93103 1.51418 2675 ft 237 kts 241°
2026-05-04 18:44 38.92345 1.49574 2043 ft 235 kts 242°
2026-05-04 18:45 38.91586 1.47730 1625 ft 224 kts 241°
2026-05-04 18:45 38.90895 1.46052 1312 ft 204 kts 240°
2026-05-04 18:45 38.90269 1.44531 1063 ft 181 kts 239°
2026-05-04 18:45 38.89711 1.43178 838 ft 162 kts 240°
2026-05-04 18:46 38.89218 1.41983 634 ft 140 kts 237°
2026-05-04 18:46 38.88776 1.40916 426 ft 135 kts 239°
2026-05-04 18:46 38.88325 1.39828 272 ft 136 kts 240°
2026-05-04 18:46 38.87880 1.38764 55 ft 134 kts 243°
2026-05-04 18:47 38.87480 1.37766 12 ft 106 kts 240°
2026-05-04 18:47 38.87235 1.37186 12 ft 38 kts 242°
2026-05-04 18:47 38.87134 1.36947 10 ft 23 kts 241°
2026-05-04 18:47 38.87105 1.36805 9 ft 17 kts 266°
2026-05-04 18:48 38.87102 1.36669 8 ft 11 kts 271°
2026-05-04 18:48 38.87102 1.36650 8 ft 0 kts 271°
2026-05-04 18:50 38.87103 1.36631 8 ft 5 kts 271°
2026-05-04 18:50 38.87119 1.36568 8 ft 10 kts 317°
2026-05-04 18:50 38.87184 1.36616 8 ft 15 kts 60°
2026-05-04 18:51 38.87237 1.36746 9 ft 18 kts 62°
2026-05-04 18:51 38.87284 1.36853 9 ft 12 kts 49°
2026-05-04 18:51 38.87348 1.36833 9 ft 12 kts 334°
2026-05-04 18:51 38.87412 1.36794 8 ft 8 kts 344°
2026-05-04 18:52 38.87458 1.36850 8 ft 12 kts 60°
2026-05-04 18:52 38.87506 1.36967 8 ft 17 kts 62°
2026-05-04 18:52 38.87552 1.37078 9 ft 8 kts 62°
2026-05-04 18:52 38.87600 1.37073 9 ft 7 kts 333°
2026-05-04 18:53 38.87626 1.37055 8 ft 0 kts 333°